EW4561 Weather Reports


Display with metric or nautical units.
time (UTC)temp
F
wind
direction
speed
MPH
gust
MPH
rain 1hr
in
rain 24hr
in
rain mn
in
humidity
%
barometer
mb
20180622065407 63 0 0.0 0.0 0.00 0.00 0.00 56 1024.1
20180622064807 64 0 0.0 0.0 0.00 0.00 0.00 55 1024.1
20180622064207 64 312 0.0 1.0 0.00 0.00 0.00 54 1024.2
20180622063607 64 312 1.0 2.0 0.00 0.00 0.00 54 1024.1
20180622063008 65 312 1.0 2.0 0.00 0.00 0.00 53 1024.2
20180622062407 65 312 1.0 3.0 0.00 0.00 0.00 52 1024.2
20180622061807 65 312 1.0 3.0 0.00 0.00 0.00 51 1024.2
20180622061208 65 323 2.0 7.0 0.00 0.00 0.00 49 1024.2
20180622060607 65 342 2.0 7.0 0.00 0.00 0.00 50 1024.2
20180622060009 65 335 2.0 6.0 0.00 0.00 0.00 49 1024.2
20180622055407 66 2 3.0 5.0 0.00 0.00 0.00 49 1024.2
20180622054807 65 22 3.0 6.0 0.00 0.00 0.00 49 1024.2
20180622054207 65 16 3.0 5.0 0.00 0.00 0.00 49 1024.2
20180622053608 65 6 3.0 6.0 0.00 0.00 0.00 49 1024.2
20180622053007 66 2 3.0 6.0 0.00 0.00 0.00 48 1024.2
20180622052408 65 31 3.0 6.0 0.00 0.00 0.00 49 1024.2
20180622051808 65 28 2.0 6.0 0.00 0.00 0.00 51 1024.3
20180622051208 65 8 2.0 6.0 0.00 0.00 0.00 51 1024.2
20180622050608 66 2 2.0 5.0 0.00 0.00 0.00 53 1024.2
20180622050008 65 12 2.0 5.0 0.00 0.00 0.00 54 1024.3
20180622045408 65 8 2.0 6.0 0.00 0.00 0.00 53 1024.2
20180622044808 65 354 2.0 6.0 0.00 0.00 0.00 54 1024.3
20180622044208 65 17 3.0 6.0 0.00 0.00 0.00 58 1024.4
20180622043608 64 25 2.0 6.0 0.00 0.00 0.00 60 1024.4
20180622043008 64 40 2.0 6.0 0.00 0.00 0.00 59 1024.5
20180622042408 65 60 2.0 6.0 0.00 0.00 0.00 60 1024.4
20180622041808 64 36 2.0 5.0 0.00 0.00 0.00 61 1024.5
20180622041208 64 352 2.0 5.0 0.00 0.00 0.00 61 1024.5
20180622040608 64 315 3.0 7.0 0.00 0.00 0.00 61 1024.6
20180622040008 64 1 3.0 7.0 0.00 0.00 0.00 61 1024.6
20180622035408 64 19 2.0 6.0 0.00 0.00 0.00 60 1024.7
20180622034808 64 35 3.0 5.0 0.00 0.00 0.00 62 1024.7
20180622034208 63 48 3.0 6.0 0.00 0.00 0.00 62 1024.8
20180622033608 63 46 3.0 6.0 0.00 0.00 0.00 63 1024.8
20180622033008 63 40 2.0 7.0 0.00 0.00 0.00 63 1024.8
20180622032408 64 38 3.0 7.0 0.00 0.00 0.00 62 1024.9
20180622031808 63 13 3.0 6.0 0.00 0.00 0.00 65 1025.0
20180622031208 62 17 3.0 6.0 0.00 0.00 0.00 65 1025.1
20180622030608 62 29 3.0 6.0 0.00 0.00 0.00 65 1025.2
20180622030008 62 3 3.0 6.0 0.00 0.00 0.00 64 1025.3
20180622025408 62 12 3.0 6.0 0.00 0.00 0.00 66 1025.4
20180622024808 62 23 3.0 6.0 0.00 0.00 0.00 65 1025.5
20180622024208 62 12 3.0 7.0 0.00 0.00 0.00 66 1025.6
20180622023607 62 326 3.0 5.0 0.00 0.00 0.00 66 1025.7
20180622023008 60 311 2.0 6.0 0.00 0.00 0.00 68 1025.8
20180622022408 61 330 2.0 6.0 0.00 0.00 0.00 68 1026.0
20180622021808 60 328 2.0 6.0 0.00 0.00 0.00 68 1026.2
20180622021208 60 345 2.0 6.0 0.00 0.00 0.00 69 1026.3
20180622020608 59 351 1.0 5.0 0.00 0.00 0.00 69 1026.4
20180622020008 60 13 1.0 4.0 0.00 0.00 0.00 70 1026.6
20180622015408 58 4 2.0 5.0 0.00 0.00 0.00 70 1026.7
20180622014808 58 3 2.0 5.0 0.00 0.00 0.00 71 1026.8
20180622014208 58 6 2.0 8.0 0.00 0.00 0.00 71 1027.0
20180622013608 57 343 1.0 8.0 0.00 0.00 0.00 71 1027.1
20180622013008 57 328 1.0 6.0 0.00 0.00 0.00 71 1027.3
20180622012408 57 293 1.0 4.0 0.00 0.00 0.00 72 1027.5
20180622011808 56 326 1.0 4.0 0.00 0.00 0.00 72 1027.6
20180622011208 56 352 2.0 4.0 0.00 0.00 0.00 73 1027.7
20180622010608 55 2 2.0 5.0 0.00 0.00 0.00 74 1027.8
20180622010008 55 12 1.0 4.0 0.00 0.00 0.00 75 1027.9
20180622005408 55 6 1.0 4.0 0.00 0.00 0.00 74 1027.9
20180622004809 55 5 0.0 4.0 0.00 0.00 0.00 75 1028.0
20180622004207 55 4 0.0 1.0 0.00 0.00 0.00 76 1028.0
20180622003608 55 4 0.0 3.0 0.00 0.00 0.00 77 1028.1
20180622003008 54 0 1.0 0.0 0.00 0.00 0.00 78 1028.2
20180622002408 53 232 1.0 3.0 0.00 0.00 0.00 79 1028.2
20180622001808 52 240 1.0 4.0 0.00 0.00 0.00 81 1028.3
20180622001208 52 228 1.0 4.0 0.00 0.00 0.00 81 1028.3
20180622000608 51 175 0.0 3.0 0.00 0.00 0.00 82 1028.3
20180622000008 51 137 0.0 2.0 0.00 0.00 0.00 81 1028.3
20180621235408 51 305 1.0 2.0 0.00 0.00 0.00 84 1028.4
20180621234808 50 270 0.0 3.0 0.00 0.00 0.00 86 1028.3
20180621234208 50 232 0.0 2.0 0.00 0.00 0.00 88 1028.2
20180621233608 49 0 0.0 0.0 0.00 0.00 0.00 90 1028.3
20180621233007 48 0 0.0 0.0 0.00 0.00 0.00 91 1028.3
20180621232407 47 0 0.0 0.0 0.00 0.00 0.00 92 1028.1
20180621231807 47 0 0.0 0.0 0.00 0.00 0.00 93 1028.2
20180621231208 46 0 0.0 0.0 0.00 0.00 0.00 93 1028.1
20180621230608 45 230 0.0 1.0 0.00 0.00 0.00 94 1028.1
20180621230008 45 229 0.0 1.0 0.00 0.00 0.00 94 1028.1
20180621225408 44 0 0.0 0.0 0.00 0.00 0.00 94 1028.1
20180621224808 44 197 0.0 1.0 0.00 0.00 0.00 95 1028.1
20180621224208 43 197 0.0 1.0 0.00 0.00 0.00 95 1028.1
20180621223608 42 0 0.0 0.0 0.00 0.00 0.00 95 1028.1
20180621223008 42 0 0.0 0.0 0.00 0.00 0.00 95 1027.9
20180621222408 42 0 0.0 0.0 0.00 0.00 0.00 95 1027.9
20180621221807 41 0 0.0 0.0 0.00 0.00 0.00 94 1027.9
20180621221208 40 0 0.0 0.0 0.00 0.00 0.00 94 1027.9
20180621220608 40 0 0.0 0.0 0.00 0.00 0.00 94 1028.0
20180621220008 39 0 0.0 0.0 0.00 0.00 0.00 94 1028.0
20180621215408 39 0 0.0 0.0 0.00 0.00 0.00 94 1028.0
20180621214808 39 0 0.0 0.0 0.00 0.00 0.00 94 1027.9
20180621214208 39 0 0.0 0.0 0.00 0.00 0.00 94 1027.8
20180621213608 39 0 0.0 0.0 0.00 0.00 0.00 94 1027.8
20180621213008 39 0 0.0 0.0 0.00 0.00 0.00 94 1027.6
20180621212408 39 0 0.0 0.0 0.00 0.00 0.00 94 1027.6
20180621211808 39 0 0.0 0.0 0.00 0.00 0.00 94 1027.5
20180621211208 39 0 0.0 0.0 0.00 0.00 0.00 94 1027.6
20180621210608 39 0 0.0 0.0 0.00 0.00 0.00 94 1027.6
20180621210008 38 0 0.0 0.0 0.00 0.00 0.00 94 1027.5
20180621205408 38 0 0.0 0.0 0.00 0.00 0.00 93 1027.4
20180621204808 38 0 0.0 0.0 0.00 0.00 0.00 93 1027.3
20180621204209 38 0 0.0 0.0 0.00 0.00 0.00 93 1027.3
20180621203608 38 0 0.0 0.0 0.00 0.00 0.00 93 1027.3
20180621203009 38 0 0.0 0.0 0.00 0.00 0.00 93 1027.2
20180621202409 38 0 0.0 0.0 0.00 0.00 0.00 93 1027.2
20180621201809 39 0 0.0 0.0 0.00 0.00 0.00 93 1027.2
20180621201208 39 0 0.0 0.0 0.00 0.00 0.00 93 1027.2
20180621200608 39 0 0.0 0.0 0.00 0.00 0.00 93 1027.1
20180621200009 38 0 0.0 0.0 0.00 0.00 0.00 93 1027.2
20180621195408 38 0 0.0 0.0 0.00 0.00 0.00 93 1027.1
20180621194808 39 0 0.0 0.0 0.00 0.00 0.00 93 1027.1
20180621194208 39 0 0.0 0.0 0.00 0.00 0.00 93 1027.1
20180621193608 39 0 0.0 0.0 0.00 0.00 0.00 93 1027.0
20180621193008 39 0 0.0 0.0 0.00 0.00 0.00 93 1026.9
20180621192408 39 0 0.0 0.0 0.00 0.00 0.00 93 1026.9
20180621191808 39 0 0.0 0.0 0.00 0.00 0.00 92 1026.9
20180621191208 39 0 0.0 0.0 0.00 0.00 0.00 92 1026.8
20180621190608 39 0 0.0 0.0 0.00 0.00 0.00 93 1026.8
20180621190008 39 0 0.0 0.0 0.00 0.00 0.00 92 1026.8
20180621185408 39 0 0.0 0.0 0.00 0.00 0.00 92 1026.8
20180621184808 39 0 0.0 0.0 0.00 0.00 0.00 92 1026.7
20180621184208 39 0 0.0 0.0 0.00 0.00 0.00 92 1026.7
20180621183608 39 0 0.0 0.0 0.00 0.00 0.00 92 1026.8
20180621183008 39 0 0.0 0.0 0.00 0.00 0.00 92 1026.8
20180621182408 39 0 0.0 0.0 0.00 0.00 0.00 92 1026.8
20180621181808 39 0 0.0 0.0 0.00 0.00 0.00 92 1026.7
20180621181208 39 0 0.0 0.0 0.00 0.00 0.00 92 1026.7
20180621180608 40 0 0.0 0.0 0.00 0.00 0.00 92 1026.7
20180621180008 40 0 0.0 0.0 0.00 0.00 0.00 92 1026.7
20180621175408 40 0 0.0 0.0 0.00 0.00 0.00 93 1026.7
20180621174808 40 0 0.0 0.0 0.00 0.00 0.00 92 1026.8
20180621174208 40 0 0.0 0.0 0.00 0.00 0.00 92 1026.8
20180621173608 39 0 0.0 0.0 0.00 0.00 0.00 92 1026.8
20180621173008 39 0 0.0 0.0 0.00 0.00 0.00 92 1026.8
20180621172408 39 0 0.0 0.0 0.00 0.00 0.00 92 1026.8
20180621171809 40 0 0.0 0.0 0.00 0.00 0.00 92 1026.9
20180621171208 40 0 0.0 0.0 0.00 0.00 0.00 92 1026.9
20180621170608 40 0 0.0 0.0 0.00 0.00 0.00 92 1026.9
20180621170008 40 0 0.0 0.0 0.00 0.00 0.00 92 1026.9
20180621165408 40 0 0.0 0.0 0.00 0.00 0.00 92 1027.0
20180621164808 40 0 0.0 0.0 0.00 0.00 0.00 92 1027.0
20180621164208 40 0 0.0 0.0 0.00 0.00 0.00 92 1027.1
20180621163608 40 0 0.0 0.0 0.00 0.00 0.00 92 1027.1
20180621163008 40 0 0.0 0.0 0.00 0.00 0.00 91 1027.1
20180621162408 41 0 0.0 0.0 0.00 0.00 0.00 92 1027.1
20180621161808 41 0 0.0 0.0 0.00 0.00 0.00 92 1027.2
20180621161208 41 0 0.0 0.0 0.00 0.00 0.00 92 1027.1
20180621160608 41 0 0.0 0.0 0.00 0.00 0.00 92 1027.1
20180621160008 41 0 0.0 0.0 0.00 0.00 0.00 91 1027.0
20180621155408 41 0 0.0 0.0 0.00 0.00 0.00 91 1027.0
20180621154808 41 0 0.0 0.0 0.00 0.00 0.00 92 1027.0
20180621154208 41 0 0.0 0.0 0.00 0.00 0.00 91 1026.9
20180621153608 42 0 0.0 0.0 0.00 0.00 0.00 91 1026.9
20180621153008 42 0 0.0 0.0 0.00 0.00 0.00 91 1027.0
20180621152408 42 0 0.0 0.0 0.00 0.00 0.00 91 1027.0
20180621151809 42 0 0.0 0.0 0.00 0.00 0.00 91 1027.0
20180621151208 42 0 0.0 0.0 0.00 0.00 0.00 91 1026.9
20180621150608 42 0 0.0 0.0 0.00 0.00 0.00 91 1027.0
20180621150008 42 0 0.0 0.0 0.00 0.00 0.00 91 1026.9
20180621145408 43 0 0.0 0.0 0.00 0.00 0.00 91 1026.9
20180621144808 43 0 0.0 0.0 0.00 0.00 0.00 91 1026.9
20180621144208 43 0 0.0 0.0 0.00 0.00 0.00 91 1026.9
20180621143608 43 0 0.0 0.0 0.00 0.00 0.00 91 1027.0
20180621143008 43 0 0.0 0.0 0.00 0.00 0.00 91 1027.1
20180621142408 43 0 0.0 0.0 0.00 0.00 0.00 91 1027.2
20180621141809 43 0 0.0 0.0 0.00 0.00 0.00 91 1027.2
20180621141209 43 0 0.0 0.0 0.00 0.00 0.00 91 1027.3
20180621140608 44 0 0.0 0.0 0.00 0.00 0.00 91 1027.3
20180621140008 44 0 0.0 0.0 0.00 0.00 0.00 91 1027.3
20180621135408 44 0 0.0 0.0 0.00 0.00 0.00 91 1027.3
20180621134808 44 0 0.0 0.0 0.00 0.00 0.00 90 1027.4
20180621134208 44 0 0.0 0.0 0.00 0.00 0.00 91 1027.3
20180621133608 44 0 0.0 0.0 0.00 0.00 0.00 91 1027.3
20180621133008 44 0 0.0 0.0 0.00 0.00 0.00 91 1027.3
20180621132408 45 0 0.0 0.0 0.00 0.00 0.00 90 1027.3
20180621131808 45 0 0.0 0.0 0.00 0.00 0.00 90 1027.3
20180621131209 45 0 0.0 0.0 0.00 0.00 0.00 90 1027.3
20180621130608 46 0 0.0 0.0 0.00 0.00 0.00 91 1027.2
20180621130008 46 0 0.0 0.0 0.00 0.00 0.00 91 1027.4
20180621125409 46 0 0.0 0.0 0.00 0.00 0.00 91 1027.3
20180621124809 46 0 0.0 0.0 0.00 0.00 0.00 91 1027.4
20180621124208 46 0 0.0 0.0 0.00 0.00 0.00 90 1027.3
20180621123609 46 0 0.0 0.0 0.00 0.00 0.00 90 1027.3
20180621123008 46 0 0.0 0.0 0.00 0.00 0.00 90 1027.3
20180621122408 46 0 0.0 0.0 0.00 0.00 0.00 90 1027.3
20180621121808 47 0 0.0 0.0 0.00 0.00 0.00 90 1027.3
20180621121208 47 0 0.0 0.0 0.00 0.00 0.00 90 1027.3
20180621120608 47 0 0.0 0.0 0.00 0.00 0.00 91 1027.3
20180621120008 47 0 0.0 0.0 0.00 0.00 0.00 91 1027.2
20180621115408 47 0 0.0 0.0 0.00 0.00 0.00 90 1027.2
20180621114808 47 0 0.0 0.0 0.00 0.00 0.00 90 1027.3
20180621114208 47 0 0.0 0.0 0.00 0.00 0.00 90 1027.2
20180621113608 47 0 0.0 0.0 0.00 0.00 0.00 90 1027.2
20180621113008 47 0 0.0 0.0 0.00 0.00 0.00 91 1027.2
20180621112409 47 0 0.0 0.0 0.00 0.00 0.00 90 1027.2
20180621111809 47 0 0.0 0.0 0.00 0.00 0.00 90 1027.2
20180621111209 47 0 0.0 0.0 0.00 0.00 0.00 90 1027.2
20180621110609 47 0 0.0 0.0 0.00 0.00 0.00 89 1027.2
20180621110008 47 0 0.0 0.0 0.00 0.00 0.00 89 1027.2
20180621105408 47 0 0.0 0.0 0.00 0.00 0.00 88 1027.2
20180621104808 48 0 0.0 0.0 0.00 0.00 0.00 88 1027.2
20180621104208 48 0 0.0 0.0 0.00 0.00 0.00 88 1027.1
20180621103608 49 0 0.0 0.0 0.00 0.00 0.00 88 1027.0
20180621103008 49 0 0.0 0.0 0.00 0.00 0.00 89 1026.9
20180621102408 49 0 0.0 0.0 0.00 0.00 0.00 89 1026.9
20180621101808 49 0 0.0 0.0 0.00 0.00 0.00 88 1026.9
20180621101208 49 0 0.0 0.0 0.00 0.00 0.00 87 1026.9
20180621100608 49 0 0.0 0.0 0.00 0.00 0.00 87 1026.9
20180621100008 49 0 0.0 0.0 0.00 0.00 0.00 87 1026.9
20180621095408 50 0 0.0 0.0 0.00 0.00 0.00 86 1026.9
20180621094808 50 0 0.0 0.0 0.00 0.00 0.00 86 1026.9
20180621094208 50 0 0.0 0.0 0.00 0.00 0.00 85 1026.9
20180621093608 51 0 0.0 0.0 0.00 0.00 0.00 85 1026.9
20180621093008 51 77 0.0 2.0 0.00 0.00 0.00 85 1026.7
20180621092408 51 77 0.0 2.0 0.00 0.00 0.00 85 1026.6
20180621091208 51 0 0.0 0.0 0.00 0.00 0.00 83 1026.6
20180621090609 52 0 0.0 0.0 0.00 0.00 0.00 82 1026.6
20180621090009 52 0 0.0 0.0 0.00 0.00 0.00 82 1026.5
20180621085409 53 0 0.0 0.0 0.00 0.00 0.00 82 1026.5
20180621084809 53 0 0.0 0.0 0.00 0.00 0.00 81 1026.5
20180621084209 53 0 0.0 0.0 0.00 0.00 0.00 81 1026.5
20180621083609 53 0 0.0 0.0 0.00 0.00 0.00 81 1026.5
20180621083009 54 0 0.0 0.0 0.00 0.00 0.00 80 1026.4
20180621082408 54 0 0.0 0.0 0.00 0.00 0.00 80 1026.3
20180621081808 54 0 0.0 0.0 0.00 0.00 0.00 79 1026.3
20180621081208 55 0 0.0 0.0 0.00 0.00 0.00 78 1026.2
20180621080608 56 0 0.0 0.0 0.00 0.00 0.00 77 1026.2
20180621080008 56 0 0.0 0.0 0.00 0.00 0.00 76 1026.1
20180621075408 56 0 0.0 0.0 0.00 0.00 0.00 75 1026.0
20180621074808 57 0 0.0 0.0 0.00 0.00 0.00 74 1026.0
20180621074208 57 0 0.0 0.0 0.00 0.00 0.00 74 1025.9
20180621073608 58 0 0.0 0.0 0.00 0.00 0.00 73 1025.8
20180621073008 58 0 0.0 0.0 0.00 0.00 0.00 72 1025.6
20180621072408 58 0 0.0 0.0 0.00 0.00 0.00 71 1025.6
20180621071808 59 0 1.0 0.0 0.00 0.00 0.00 70 1025.5
20180621071208 59 45 2.0 3.0 0.00 0.00 0.00 69 1025.4
20180621070608 60 44 1.0 4.0 0.00 0.00 0.00 69 1025.3
20180621070008 60 42 1.0 4.0 0.00 0.00 0.00 68 1025.3